Location: ????
(33.1659°N, 35.6604°E)
Time: 21:10:49
(UTC+00:00)

Cosmos 2322 - Pass Details

Date: 20 September 2019
Orbit: 839 x 856 km, 71.0° (Epoch: 19 October)

Event Time Altitude Azimuth Distance (km) Brightness Sun altitude
Rises 16:35:41 0° 334° (NNW) 3,431 7.4 -12.9°
Reaches altitude 10° 16:38:11 10° 331° (NNW) 2,491 6.7 -13.5°
Maximum altitude 16:43:47 58° 254° (WSW) 992 4.4 -14.6°
Drops below altitude 10° 16:49:20 10° 176° (S) 2,470 6.0 -15.8°
Sets 16:51:48 0° 172° (S) 3,400 6.6 -16.3°
